Flag for Canada Weather past 2 weeks in New Westminster, British Columbia, Canada

Now
70 °F

Mild.


Feels Like: 70 °F
Forecast: 54 / 74 °F
Wind: 5 mph from Southwest

Location: P. Meadows Coastal Station

Current Time: Jul 27, 2015 at 9:28:56 PM

Latest Report: Jul 27, 2015 at 8:00 PM


Visibility: N/A

Pressure: 30.19 "Hg

Humidity: 52%

Dew point: 51 °F

Location of New WestminsterLocation

Historic Weather in New Westminster — Graph

°F

New Westminster temperature yesterday

Maximum temperature yesterday: 67 °F (at 4:00 PM)
Minimum temperature yesterday: 57 °F (at 11:00 PM)
Average temperature yesterday: 61 °F

Past Weeks' High & Low Weather Summary

 TemperatureHumidityPressure
High91 °F (Jul 18, 5:00 PM)97% (Jul 24, 10:00 PM)30.19 "Hg (Jul 24, 10:00 PM)
Low53 °F (Jul 23, 5:00 AM)21% (Jul 18, 5:00 PM)29.86 "Hg (Jul 22, 8:00 PM)
Average67 °F67%30.01 "Hg
* Reported Jul 12 8:00 PM — Jul 27 8:00 PM, New Westminster, Weather by CustomWeather, © 2015

Note: Actual official high and low records may vary slightly from our data, if they occured in-between our weather recording intervals... More about our weather records

Advertising

New Westminster weather history for previous 24 hours

 ConditionsComfort  
Time TempWeatherWind HumidityBarometerVisibility
8:00 PM
Mon, Jul 27
70 °FMild.5 mph52%30.19 "HgN/A
7:00 PM71 °FMild.5 mph49%30.18 "HgN/A
6:00 PM72 °FMild.6 mph45%30.18 "HgN/A
5:00 PM73 °FMild.7 mph47%30.18 "HgN/A
4:00 PM72 °FMild.6 mph52%30.18 "HgN/A
3:00 PM71 °FMild.3 mph53%30.18 "HgN/A
2:00 PM70 °FMild.6 mph54%30.18 "HgN/A
1:00 PM68 °FMild.3 mph61%30.18 "HgN/A
12:00 PM67 °FMild.5 mph64%30.18 "HgN/A
11:00 AM69 °FMild.1 mph56%30.17 "HgN/A
10:00 AM66 °FMild.2 mph64%30.17 "HgN/A
9:00 AM62 °FCool.2 mph74%30.17 "HgN/A
8:00 AM61 °FCool.2 mph81%30.16 "HgN/A
7:00 AM58 °FCool.1 mph81%30.15 "HgN/A
6:00 AM55 °FCool.1 mph95%30.14 "HgN/A
5:00 AM54 °FCool.No wind96%30.12 "HgN/A
4:00 AM53 °FCool.No wind97%30.11 "HgN/A
3:00 AM54 °FCool.No wind96%30.10 "HgN/A
2:00 AM55 °FCool.No wind95%30.09 "HgN/A
1:00 AM56 °FCool.No wind94%30.09 "HgN/A
12:00 AM57 °FCool.1 mph94%30.09 "HgN/A
11:00 PM
Sun, Jul 26
57 °FCool.No wind93%30.09 "HgN/A
10:00 PM58 °FCool.1 mph91%30.09 "HgN/A
9:00 PM61 °FCool.2 mph85%30.07 "HgN/A
Weather by CustomWeather, © 2015

See weather overviewHow to use our weather pages